ORBCOMM FM104 [-] (40090 NORAD) Tracking and Keplerian Element Data

This shows tracking and keplerian element data for the satellite.

Feedback or suggestion? Click here.




ElementValue
Catalog40090
NameORBCOMM FM104 [-]
Epoch Orbit23111
Epoch Day322.92498431
Epoch Year2018
RAAN162.1775
Inclination47.0046
Eccentricity0.0017599
Argument of Perigee68.1029
Mean Anonmoly292.1724
Mean Motion14.5331676
Decay Rate-4.4E-07
L11 40090U 14040E 18322.92498431 -.00000044 00000-0 29257-4 0 9996
L22 40090 47.0046 162.1775 0017599 68.1029 292.1724 14.53316760231113

Live tracking and technical data element details for ORBCOMM FM104 [-] (NORAD 40090). ORBCOMM FM104 [-] can be tracked NOW for your location showing map with azimuth and elevation plus other details from your city location.

Track the satellite on the map from your city or location and see movement details for azimuth, elevation, latitude, longitude, range, height, and movement on the map or in text.







IsCatalogInMostPopularTable: catalog: 40090, numindb: 115
Update: records affected: 1



GetName: 40090 ORBCOMM FM104 [-]

Hit Count: updated at: Mon, 19 Nov 2018 11:09:40 GMT